TAIP21 YSNW-YMES

Flight info

Callsign TAIP21
Flight time 2h 23m
Altitude 3500
Route URBOB W436 OTKED/N0161F060 DCT ESL
Aircraft EC45/L-SDFGRY/C

Departure

Time 2026-04-19 03:44
Airport Naval Air Station Nowra - HMAS Albatross (YSNW)

Arrival

Time 2026-04-19 06:08
Airport RAAF Base East Sale (YMES)
Time Latitude Longitude Altitude Speed Heading
2026-04-19 03:41 -34.94590 150.54676 366 ft 1 kts 107°
2026-04-19 03:41 -34.94608 150.54695 376 ft 11 kts 133°
2026-04-19 03:41 -34.94671 150.54695 367 ft 9 kts 174°
2026-04-19 03:41 -34.94703 150.54660 359 ft 4 kts 173°
2026-04-19 03:42 -34.94704 150.54662 358 ft 0 kts 173°
2026-04-19 03:42 -34.94703 150.54660 360 ft 0 kts 173°
2026-04-19 03:42 -34.94703 150.54661 359 ft 0 kts 173°
2026-04-19 03:42 -34.94703 150.54660 360 ft 0 kts 173°
2026-04-19 03:43 -34.94772 150.54684 393 ft 33 kts 167°
2026-04-19 03:43 -34.95082 150.54933 471 ft 71 kts 147°
2026-04-19 03:43 -34.95555 150.55308 510 ft 89 kts 148°
2026-04-19 03:43 -34.96115 150.55713 524 ft 96 kts 150°
2026-04-19 03:44 -34.96708 150.56121 737 ft 96 kts 153°
2026-04-19 03:44 -34.97236 150.56500 1109 ft 86 kts 152°
2026-04-19 03:44 -34.97750 150.56887 1329 ft 88 kts 150°
2026-04-19 03:44 -34.98274 150.57281 1429 ft 89 kts 150°
2026-04-19 03:45 -34.98792 150.57677 1464 ft 88 kts 150°
2026-04-19 03:45 -34.99391 150.58114 1464 ft 115 kts 152°
2026-04-19 03:45 -35.00100 150.58616 1502 ft 115 kts 150°
2026-04-19 03:45 -35.00800 150.59041 1488 ft 113 kts 166°
2026-04-19 03:46 -35.01582 150.58978 1497 ft 115 kts 192°
2026-04-19 03:46 -35.02353 150.58700 1502 ft 115 kts 194°
2026-04-19 03:46 -35.03097 150.58401 1497 ft 112 kts 196°
2026-04-19 03:46 -35.03859 150.58095 1481 ft 123 kts 197°
2026-04-19 03:47 -35.04674 150.57771 1506 ft 119 kts 195°
2026-04-19 03:47 -35.05469 150.57467 1503 ft 121 kts 196°
2026-04-19 03:47 -35.06272 150.57170 1495 ft 121 kts 195°
2026-04-19 03:47 -35.07070 150.56878 1496 ft 120 kts 195°
2026-04-19 03:48 -35.07869 150.56581 1505 ft 119 kts 195°
2026-04-19 03:48 -35.08665 150.56274 1506 ft 119 kts 195°
2026-04-19 03:48 -35.09438 150.55979 1504 ft 119 kts 196°
2026-04-19 03:48 -35.10245 150.55678 1501 ft 119 kts 196°
2026-04-19 03:49 -35.11038 150.55381 1500 ft 121 kts 196°
2026-04-19 03:49 -35.11837 150.55081 1503 ft 119 kts 196°
2026-04-19 03:49 -35.12630 150.54784 1502 ft 118 kts 197°
2026-04-19 03:49 -35.13418 150.54498 1507 ft 117 kts 196°
2026-04-19 03:50 -35.14171 150.54148 1508 ft 116 kts 200°
2026-04-19 03:50 -35.14923 150.53766 1505 ft 118 kts 200°
2026-04-19 03:50 -35.15670 150.53374 1503 ft 116 kts 201°
2026-04-19 03:50 -35.16414 150.52983 1514 ft 117 kts 201°
2026-04-19 03:51 -35.17182 150.52588 1507 ft 118 kts 201°
2026-04-19 03:51 -35.17938 150.52204 1507 ft 117 kts 200°
2026-04-19 03:51 -35.18669 150.51828 1504 ft 115 kts 200°
2026-04-19 03:51 -35.19412 150.51436 1503 ft 117 kts 200°
2026-04-19 03:52 -35.20166 150.51035 1491 ft 118 kts 201°
2026-04-19 03:52 -35.20930 150.50642 1506 ft 119 kts 201°
2026-04-19 03:52 -35.21693 150.50257 1508 ft 119 kts 201°
2026-04-19 03:52 -35.22454 150.49885 1509 ft 117 kts 200°
2026-04-19 03:53 -35.23211 150.49509 1506 ft 118 kts 200°
2026-04-19 03:53 -35.23977 150.49117 1507 ft 119 kts 200°
2026-04-19 03:53 -35.24740 150.48731 1505 ft 119 kts 200°
2026-04-19 03:53 -35.25498 150.48339 1504 ft 119 kts 201°
2026-04-19 03:54 -35.26266 150.47957 1506 ft 119 kts 200°
2026-04-19 03:54 -35.27041 150.47567 1506 ft 122 kts 201°
2026-04-19 03:54 -35.27825 150.47161 1508 ft 122 kts 200°
2026-04-19 03:54 -35.28594 150.46752 1510 ft 119 kts 200°
2026-04-19 03:55 -35.29356 150.46349 1513 ft 118 kts 201°
2026-04-19 03:55 -35.30105 150.45961 1500 ft 118 kts 201°
2026-04-19 03:55 -35.30867 150.45563 1511 ft 120 kts 201°
2026-04-19 03:55 -35.31638 150.45154 1511 ft 122 kts 200°
2026-04-19 03:56 -35.32425 150.44738 1511 ft 125 kts 201°
2026-04-19 03:56 -35.33234 150.44354 1510 ft 123 kts 195°
2026-04-19 03:56 -35.34047 150.44058 1510 ft 122 kts 194°
2026-04-19 03:56 -35.34870 150.43776 1514 ft 123 kts 193°
2026-04-19 03:57 -35.35694 150.43487 1509 ft 124 kts 194°
2026-04-19 03:57 -35.36509 150.43203 1511 ft 123 kts 194°
2026-04-19 03:57 -35.37325 150.42923 1509 ft 122 kts 194°
2026-04-19 03:57 -35.38150 150.42643 1511 ft 122 kts 193°
2026-04-19 03:58 -35.38968 150.42361 1512 ft 121 kts 193°
2026-04-19 03:58 -35.39785 150.42079 1511 ft 123 kts 193°
2026-04-19 03:58 -35.40600 150.41795 1510 ft 121 kts 193°
2026-04-19 03:58 -35.41397 150.41508 1508 ft 120 kts 195°
2026-04-19 03:59 -35.42206 150.41233 1513 ft 121 kts 194°
2026-04-19 03:59 -35.43022 150.40958 1509 ft 122 kts 194°
2026-04-19 03:59 -35.43851 150.40686 1508 ft 124 kts 194°
2026-04-19 03:59 -35.44671 150.40424 1512 ft 121 kts 193°
2026-04-19 04:00 -35.45497 150.40146 1510 ft 124 kts 193°
2026-04-19 04:00 -35.46329 150.39857 1509 ft 125 kts 193°
2026-04-19 04:00 -35.47158 150.39564 1509 ft 123 kts 194°
2026-04-19 04:00 -35.47975 150.39283 1510 ft 121 kts 193°
2026-04-19 04:01 -35.48796 150.38996 1510 ft 124 kts 193°
2026-04-19 04:01 -35.50457 150.38406 1508 ft 124 kts 194°
2026-04-19 04:01 -35.51287 150.38118 1507 ft 123 kts 193°
2026-04-19 04:02 -35.52086 150.37825 1506 ft 119 kts 194°
2026-04-19 04:02 -35.52879 150.37539 1512 ft 121 kts 194°
2026-04-19 04:02 -35.53681 150.37253 1516 ft 118 kts 193°
2026-04-19 04:02 -35.54486 150.36962 1518 ft 120 kts 193°
2026-04-19 04:03 -35.55292 150.36667 1510 ft 122 kts 193°
2026-04-19 04:03 -35.56093 150.36311 1509 ft 124 kts 199°
2026-04-19 04:03 -35.56886 150.35928 1508 ft 122 kts 198°
2026-04-19 04:03 -35.57667 150.35545 1504 ft 121 kts 199°
2026-04-19 04:04 -35.58464 150.35161 1513 ft 124 kts 198°
2026-04-19 04:04 -35.59266 150.34773 1509 ft 124 kts 200°
2026-04-19 04:04 -35.60067 150.34398 1510 ft 123 kts 198°
2026-04-19 04:04 -35.60859 150.34012 1510 ft 122 kts 198°
2026-04-19 04:05 -35.61654 150.33616 1512 ft 123 kts 198°
2026-04-19 04:05 -35.62434 150.33218 1510 ft 120 kts 199°
2026-04-19 04:05 -35.63204 150.32825 1495 ft 121 kts 200°
2026-04-19 04:05 -35.63990 150.32437 1514 ft 120 kts 199°
2026-04-19 04:06 -35.64777 150.32055 1511 ft 121 kts 199°
2026-04-19 04:06 -35.65566 150.31686 1512 ft 121 kts 197°
2026-04-19 04:06 -35.66344 150.31316 1512 ft 121 kts 199°
2026-04-19 04:06 -35.67130 150.30932 1513 ft 122 kts 200°
2026-04-19 04:07 -35.67897 150.30493 1513 ft 121 kts 202°
2026-04-19 04:07 -35.68665 150.30052 1512 ft 121 kts 202°
2026-04-19 04:07 -35.69419 150.29631 1513 ft 119 kts 201°
2026-04-19 04:07 -35.70183 150.29205 1513 ft 121 kts 202°
2026-04-19 04:08 -35.70950 150.28791 1513 ft 120 kts 201°
2026-04-19 04:08 -35.71710 150.28370 1510 ft 119 kts 202°
2026-04-19 04:08 -35.72470 150.27951 1512 ft 120 kts 201°
2026-04-19 04:08 -35.73222 150.27522 1512 ft 118 kts 201°
2026-04-19 04:09 -35.73971 150.27093 1512 ft 118 kts 202°
2026-04-19 04:09 -35.74722 150.26672 1512 ft 119 kts 201°
2026-04-19 04:09 -35.75482 150.26243 1512 ft 121 kts 202°
2026-04-19 04:09 -35.76248 150.25814 1504 ft 121 kts 201°
2026-04-19 04:10 -35.77012 150.25372 1512 ft 121 kts 202°
2026-04-19 04:10 -35.77782 150.24937 1510 ft 122 kts 202°
2026-04-19 04:10 -35.78548 150.24507 1511 ft 121 kts 202°
2026-04-19 04:10 -35.79310 150.24062 1510 ft 122 kts 206°
2026-04-19 04:11 -35.80025 150.23542 1512 ft 120 kts 208°
2026-04-19 04:11 -35.80743 150.22999 1510 ft 121 kts 209°
2026-04-19 04:11 -35.81454 150.22452 1512 ft 120 kts 208°
2026-04-19 04:11 -35.82167 150.21895 1513 ft 121 kts 209°
2026-04-19 04:12 -35.82868 150.21338 1510 ft 121 kts 209°
2026-04-19 04:12 -35.83560 150.20782 1503 ft 119 kts 209°
2026-04-19 04:12 -35.84259 150.20225 1511 ft 120 kts 208°
2026-04-19 04:12 -35.84954 150.19669 1511 ft 119 kts 210°
2026-04-19 04:13 -35.85659 150.19123 1512 ft 119 kts 209°
2026-04-19 04:13 -35.86139 150.18752 1513 ft 122 kts 208°
2026-04-19 04:13 -35.86853 150.18203 1510 ft 121 kts 209°
2026-04-19 04:13 -35.87565 150.17662 1510 ft 120 kts 208°
2026-04-19 04:14 -35.88268 150.17122 1504 ft 122 kts 209°
2026-04-19 04:14 -35.89005 150.16554 1513 ft 125 kts 208°
2026-04-19 04:14 -35.89754 150.16011 1513 ft 124 kts 202°
2026-04-19 04:14 -35.90575 150.15637 1512 ft 126 kts 194°
2026-04-19 04:15 -35.91430 150.15396 1513 ft 126 kts 188°
2026-04-19 04:15 -35.92294 150.15211 1511 ft 125 kts 185°
2026-04-19 04:15 -35.93153 150.15041 1510 ft 125 kts 186°
2026-04-19 04:15 -35.94009 150.14877 1511 ft 124 kts 187°
2026-04-19 04:16 -35.94873 150.14724 1511 ft 125 kts 186°
2026-04-19 04:16 -35.95734 150.14572 1510 ft 126 kts 186°
2026-04-19 04:16 -35.96610 150.14424 1510 ft 128 kts 185°
2026-04-19 04:16 -35.97479 150.14262 1511 ft 126 kts 186°
2026-04-19 04:17 -35.98348 150.14098 1512 ft 127 kts 186°
2026-04-19 04:17 -35.99222 150.13933 1506 ft 127 kts 186°
2026-04-19 04:17 -36.00091 150.13770 1507 ft 126 kts 186°
2026-04-19 04:17 -36.00945 150.13609 1510 ft 124 kts 186°
2026-04-19 04:18 -36.01815 150.13453 1507 ft 127 kts 186°
2026-04-19 04:18 -36.02688 150.13304 1510 ft 126 kts 185°
2026-04-19 04:18 -36.03553 150.13148 1511 ft 125 kts 185°
2026-04-19 04:18 -36.04408 150.12982 1511 ft 124 kts 186°
2026-04-19 04:19 -36.05264 150.12821 1511 ft 126 kts 186°
2026-04-19 04:19 -36.06145 150.12683 1508 ft 127 kts 184°
2026-04-19 04:19 -36.07004 150.12550 1506 ft 127 kts 185°
2026-04-19 04:19 -36.07873 150.12429 1509 ft 124 kts 185°
2026-04-19 04:20 -36.08728 150.12303 1508 ft 123 kts 185°
2026-04-19 04:20 -36.09586 150.12174 1509 ft 124 kts 184°
2026-04-19 04:20 -36.10450 150.12057 1507 ft 125 kts 184°
2026-04-19 04:20 -36.11313 150.11994 1505 ft 125 kts 180°
2026-04-19 04:21 -36.12174 150.11975 1511 ft 122 kts 180°
2026-04-19 04:21 -36.13032 150.11958 1510 ft 125 kts 179°
2026-04-19 04:21 -36.13899 150.12008 1511 ft 125 kts 175°
2026-04-19 04:21 -36.14760 150.12080 1510 ft 124 kts 174°
2026-04-19 04:22 -36.15615 150.12152 1511 ft 122 kts 175°
2026-04-19 04:22 -36.16458 150.12208 1513 ft 121 kts 174°
2026-04-19 04:22 -36.17312 150.12260 1510 ft 123 kts 175°
2026-04-19 04:22 -36.18172 150.12323 1511 ft 124 kts 174°
2026-04-19 04:23 -36.19025 150.12392 1509 ft 124 kts 175°
2026-04-19 04:23 -36.19880 150.12463 1513 ft 122 kts 175°
2026-04-19 04:23 -36.20740 150.12530 1511 ft 125 kts 174°
2026-04-19 04:23 -36.21604 150.12595 1512 ft 125 kts 175°
2026-04-19 04:24 -36.22478 150.12669 1515 ft 125 kts 174°
2026-04-19 04:24 -36.23335 150.12732 1509 ft 123 kts 176°
2026-04-19 04:24 -36.24197 150.12678 1511 ft 124 kts 183°
2026-04-19 04:24 -36.25061 150.12557 1511 ft 126 kts 185°
2026-04-19 04:25 -36.25941 150.12410 1510 ft 128 kts 186°
2026-04-19 04:25 -36.26819 150.12268 1509 ft 127 kts 185°
2026-04-19 04:25 -36.27684 150.12123 1508 ft 126 kts 186°
2026-04-19 04:25 -36.28541 150.11975 1506 ft 124 kts 186°
2026-04-19 04:26 -36.29373 150.11826 1514 ft 118 kts 186°
2026-04-19 04:26 -36.30186 150.11586 1509 ft 122 kts 194°
2026-04-19 04:26 -36.30995 150.11267 1510 ft 123 kts 196°
2026-04-19 04:26 -36.31810 150.10933 1512 ft 124 kts 195°
2026-04-19 04:27 -36.32618 150.10598 1516 ft 122 kts 197°
2026-04-19 04:27 -36.33435 150.10273 1513 ft 125 kts 195°
2026-04-19 04:27 -36.34241 150.09940 1519 ft 119 kts 195°
2026-04-19 04:27 -36.35028 150.09614 1509 ft 121 kts 197°
2026-04-19 04:28 -36.35817 150.09296 1511 ft 120 kts 195°
2026-04-19 04:28 -36.36610 150.08974 1511 ft 120 kts 196°
2026-04-19 04:28 -36.37401 150.08650 1512 ft 120 kts 196°
2026-04-19 04:28 -36.38184 150.08328 1510 ft 119 kts 197°
2026-04-19 04:29 -36.38978 150.08007 1513 ft 120 kts 195°
2026-04-19 04:29 -36.39757 150.07676 1515 ft 117 kts 196°
2026-04-19 04:29 -36.40537 150.07346 1512 ft 120 kts 197°
2026-04-19 04:29 -36.41335 150.07023 1515 ft 120 kts 195°
2026-04-19 04:30 -36.42138 150.06700 1521 ft 122 kts 195°
2026-04-19 04:30 -36.42943 150.06369 1519 ft 123 kts 196°
2026-04-19 04:30 -36.43751 150.06029 1512 ft 123 kts 197°
2026-04-19 04:30 -36.44559 150.05686 1509 ft 122 kts 196°
2026-04-19 04:31 -36.45361 150.05376 1512 ft 119 kts 192°
2026-04-19 04:31 -36.46181 150.05136 1511 ft 122 kts 191°
2026-04-19 04:31 -36.47004 150.04919 1510 ft 122 kts 191°
2026-04-19 04:31 -36.47836 150.04717 1512 ft 122 kts 190°
2026-04-19 04:32 -36.48672 150.04518 1512 ft 121 kts 190°
2026-04-19 04:32 -36.49501 150.04319 1508 ft 122 kts 190°
2026-04-19 04:32 -36.50326 150.04119 1509 ft 120 kts 190°
2026-04-19 04:32 -36.51136 150.03911 1512 ft 118 kts 191°
2026-04-19 04:33 -36.51951 150.03699 1513 ft 120 kts 190°
2026-04-19 04:33 -36.52769 150.03489 1511 ft 120 kts 189°
2026-04-19 04:33 -36.53587 150.03279 1511 ft 121 kts 190°
2026-04-19 04:33 -36.54416 150.03067 1516 ft 121 kts 190°
2026-04-19 04:34 -36.55251 150.02861 1510 ft 123 kts 190°
2026-04-19 04:34 -36.56081 150.02655 1510 ft 120 kts 190°
2026-04-19 04:34 -36.56901 150.02445 1509 ft 121 kts 190°
2026-04-19 04:34 -36.57713 150.02235 1511 ft 120 kts 190°
2026-04-19 04:35 -36.58534 150.02026 1509 ft 121 kts 190°
2026-04-19 04:35 -36.59360 150.01820 1509 ft 122 kts 190°
2026-04-19 04:35 -36.60185 150.01610 1511 ft 120 kts 191°
2026-04-19 04:35 -36.61012 150.01405 1512 ft 120 kts 191°
2026-04-19 04:36 -36.61833 150.01205 1511 ft 120 kts 190°
2026-04-19 04:36 -36.62653 150.01002 1510 ft 121 kts 190°
2026-04-19 04:36 -36.63478 150.00795 1511 ft 121 kts 190°
2026-04-19 04:36 -36.64301 150.00591 1512 ft 121 kts 190°
2026-04-19 04:37 -36.65129 150.00390 1514 ft 121 kts 190°
2026-04-19 04:37 -36.65958 150.00181 1515 ft 121 kts 190°
2026-04-19 04:37 -36.66795 149.99966 1514 ft 122 kts 190°
2026-04-19 04:37 -36.67627 149.99752 1514 ft 122 kts 190°
2026-04-19 04:38 -36.68458 149.99541 1513 ft 123 kts 190°
2026-04-19 04:38 -36.69283 149.99329 1512 ft 123 kts 191°
2026-04-19 04:38 -36.70121 149.99120 1513 ft 123 kts 191°
2026-04-19 04:38 -36.70955 149.98919 1515 ft 121 kts 189°
2026-04-19 04:39 -36.71781 149.98720 1517 ft 120 kts 189°
2026-04-19 04:39 -36.72598 149.98521 1518 ft 118 kts 189°
2026-04-19 04:39 -36.73406 149.98323 1517 ft 120 kts 190°
2026-04-19 04:39 -36.74242 149.98115 1515 ft 124 kts 189°
2026-04-19 04:40 -36.75072 149.97897 1509 ft 123 kts 190°
2026-04-19 04:40 -36.75908 149.97681 1513 ft 123 kts 190°
2026-04-19 04:40 -36.76747 149.97465 1515 ft 123 kts 189°
2026-04-19 04:40 -36.77589 149.97245 1515 ft 124 kts 190°
2026-04-19 04:41 -36.78428 149.97036 1515 ft 121 kts 189°
2026-04-19 04:41 -36.79250 149.96834 1510 ft 122 kts 190°
2026-04-19 04:41 -36.80080 149.96630 1513 ft 121 kts 190°
2026-04-19 04:41 -36.80906 149.96417 1512 ft 121 kts 191°
2026-04-19 04:42 -36.81731 149.96208 1513 ft 121 kts 190°
2026-04-19 04:42 -36.82555 149.95996 1512 ft 122 kts 190°
2026-04-19 04:42 -36.83386 149.95780 1514 ft 122 kts 190°
2026-04-19 04:42 -36.84209 149.95565 1513 ft 121 kts 191°
2026-04-19 04:43 -36.85022 149.95365 1514 ft 121 kts 190°
2026-04-19 04:43 -36.85849 149.95161 1513 ft 122 kts 190°
2026-04-19 04:43 -36.86677 149.94951 1514 ft 121 kts 191°
2026-04-19 04:43 -36.87500 149.94746 1515 ft 120 kts 190°
2026-04-19 04:44 -36.88319 149.94540 1513 ft 121 kts 190°
2026-04-19 04:44 -36.89143 149.94333 1512 ft 120 kts 189°
2026-04-19 04:44 -36.89965 149.94122 1510 ft 121 kts 191°
2026-04-19 04:44 -36.90793 149.93914 1512 ft 122 kts 190°
2026-04-19 04:45 -36.91625 149.93702 1511 ft 123 kts 191°
2026-04-19 04:45 -36.92460 149.93494 1510 ft 122 kts 191°
2026-04-19 04:45 -36.93288 149.93293 1510 ft 121 kts 190°
2026-04-19 04:45 -36.94114 149.93094 1510 ft 121 kts 190°
2026-04-19 04:46 -36.94933 149.92895 1511 ft 120 kts 190°
2026-04-19 04:46 -36.95741 149.92699 1510 ft 119 kts 191°
2026-04-19 04:46 -36.96559 149.92505 1510 ft 120 kts 190°
2026-04-19 04:46 -36.97377 149.92302 1507 ft 121 kts 190°
2026-04-19 04:47 -36.98206 149.92090 1511 ft 121 kts 190°
2026-04-19 04:47 -36.99032 149.91884 1512 ft 122 kts 189°
2026-04-19 04:47 -36.99866 149.91673 1511 ft 123 kts 190°
2026-04-19 04:47 -37.00702 149.91456 1511 ft 122 kts 190°
2026-04-19 04:48 -37.01530 149.91249 1510 ft 122 kts 190°
2026-04-19 04:48 -37.02364 149.91052 1511 ft 122 kts 190°
2026-04-19 04:48 -37.03201 149.90850 1509 ft 122 kts 191°
2026-04-19 04:48 -37.04035 149.90651 1520 ft 121 kts 190°
2026-04-19 04:49 -37.04868 149.90532 1515 ft 122 kts 178°
2026-04-19 04:49 -37.05716 149.90638 1519 ft 122 kts 172°
2026-04-19 04:49 -37.06550 149.90782 1518 ft 121 kts 172°
2026-04-19 04:49 -37.07381 149.90935 1514 ft 121 kts 173°
2026-04-19 04:50 -37.08213 149.90884 1518 ft 117 kts 192°
2026-04-19 04:50 -37.08994 149.90640 1513 ft 120 kts 194°
2026-04-19 04:50 -37.09782 149.90365 1514 ft 116 kts 195°
2026-04-19 04:50 -37.10557 149.90092 1516 ft 114 kts 195°
2026-04-19 04:51 -37.11331 149.89822 1517 ft 116 kts 194°
2026-04-19 04:51 -37.12105 149.89543 1519 ft 114 kts 195°
2026-04-19 04:51 -37.12868 149.89269 1513 ft 117 kts 196°
2026-04-19 04:51 -37.13653 149.88995 1523 ft 115 kts 195°
2026-04-19 04:52 -37.14425 149.88722 1514 ft 116 kts 195°
2026-04-19 04:52 -37.15216 149.88442 1509 ft 122 kts 195°
2026-04-19 04:52 -37.16024 149.88153 1512 ft 120 kts 195°
2026-04-19 04:52 -37.16835 149.87857 1515 ft 122 kts 195°
2026-04-19 04:53 -37.17636 149.87559 1511 ft 120 kts 196°
2026-04-19 04:53 -37.18429 149.87270 1515 ft 120 kts 195°
2026-04-19 04:53 -37.19229 149.86977 1519 ft 119 kts 195°
2026-04-19 04:53 -37.20042 149.86676 1527 ft 122 kts 194°
2026-04-19 04:54 -37.20867 149.86366 1527 ft 124 kts 195°
2026-04-19 04:54 -37.21690 149.86069 1518 ft 124 kts 195°
2026-04-19 04:54 -37.22519 149.85764 1523 ft 122 kts 195°
2026-04-19 04:54 -37.23322 149.85461 1517 ft 120 kts 196°
2026-04-19 04:55 -37.24135 149.85158 1520 ft 122 kts 195°
2026-04-19 04:55 -37.24948 149.84861 1519 ft 123 kts 196°
2026-04-19 04:55 -37.25775 149.84558 1520 ft 123 kts 196°
2026-04-19 04:55 -37.26589 149.84260 1524 ft 121 kts 195°
2026-04-19 04:56 -37.27405 149.83969 1528 ft 121 kts 194°
2026-04-19 04:56 -37.28206 149.83682 1524 ft 119 kts 195°
2026-04-19 04:56 -37.28989 149.83397 1524 ft 120 kts 195°
2026-04-19 04:56 -37.29805 149.83105 1524 ft 120 kts 195°
2026-04-19 04:57 -37.30616 149.82826 1522 ft 122 kts 195°
2026-04-19 04:57 -37.31434 149.82548 1527 ft 120 kts 195°
2026-04-19 04:57 -37.32219 149.82281 1520 ft 119 kts 196°
2026-04-19 04:57 -37.33022 149.82017 1524 ft 118 kts 195°
2026-04-19 04:58 -37.33820 149.81747 1519 ft 121 kts 195°
2026-04-19 04:58 -37.34631 149.81461 1523 ft 121 kts 195°
2026-04-19 04:58 -37.35431 149.81174 1526 ft 123 kts 194°
2026-04-19 04:58 -37.36265 149.80870 1527 ft 126 kts 195°
2026-04-19 04:59 -37.37110 149.80558 1530 ft 122 kts 195°
2026-04-19 04:59 -37.37905 149.80277 1524 ft 121 kts 195°
2026-04-19 04:59 -37.38703 149.80001 1526 ft 117 kts 196°
2026-04-19 04:59 -37.39496 149.79731 1526 ft 118 kts 196°
2026-04-19 05:00 -37.40279 149.79464 1529 ft 118 kts 195°
2026-04-19 05:00 -37.41069 149.79193 1526 ft 120 kts 196°
2026-04-19 05:00 -37.41871 149.78914 1529 ft 119 kts 195°
2026-04-19 05:00 -37.42670 149.78623 1532 ft 118 kts 196°
2026-04-19 05:01 -37.43477 149.78338 1532 ft 122 kts 195°
2026-04-19 05:01 -37.44291 149.78055 1532 ft 121 kts 195°
2026-04-19 05:01 -37.45091 149.77775 1530 ft 120 kts 196°
2026-04-19 05:01 -37.45902 149.77492 1533 ft 120 kts 196°
2026-04-19 05:02 -37.46712 149.77219 1528 ft 122 kts 196°
2026-04-19 05:02 -37.47524 149.76950 1532 ft 119 kts 195°
2026-04-19 05:02 -37.48313 149.76684 1528 ft 117 kts 196°
2026-04-19 05:02 -37.49102 149.76417 1534 ft 116 kts 195°
2026-04-19 05:03 -37.49881 149.76154 1533 ft 115 kts 196°
2026-04-19 05:03 -37.50660 149.75893 1531 ft 119 kts 195°
2026-04-19 05:03 -37.51443 149.75632 1530 ft 115 kts 195°
2026-04-19 05:03 -37.51964 149.75459 1534 ft 117 kts 195°
2026-04-19 05:04 -37.53029 149.75095 1537 ft 118 kts 194°
2026-04-19 05:04 -37.53551 149.74906 1531 ft 119 kts 196°
2026-04-19 05:04 -37.54349 149.74623 1532 ft 120 kts 195°
2026-04-19 05:04 -37.55144 149.74341 1535 ft 117 kts 195°
2026-04-19 05:05 -37.55936 149.74061 1536 ft 120 kts 195°
2026-04-19 05:05 -37.56740 149.73773 1536 ft 118 kts 195°
2026-04-19 05:05 -37.57511 149.73387 1535 ft 120 kts 204°
2026-04-19 05:05 -37.58256 149.72928 1534 ft 119 kts 206°
2026-04-19 05:06 -37.58966 149.72397 1535 ft 119 kts 218°
2026-04-19 05:06 -37.59569 149.71695 1535 ft 119 kts 221°
2026-04-19 05:06 -37.60149 149.70968 1538 ft 115 kts 222°
2026-04-19 05:06 -37.60726 149.70244 1538 ft 118 kts 223°
2026-04-19 05:07 -37.61319 149.69518 1534 ft 119 kts 222°
2026-04-19 05:07 -37.61910 149.68789 1533 ft 122 kts 223°
2026-04-19 05:07 -37.62534 149.68038 1535 ft 123 kts 222°
2026-04-19 05:07 -37.63130 149.67303 1535 ft 121 kts 223°
2026-04-19 05:08 -37.63731 149.66550 1543 ft 121 kts 223°
2026-04-19 05:08 -37.64927 149.65095 1543 ft 118 kts 222°
2026-04-19 05:08 -37.65516 149.64377 1540 ft 118 kts 223°
2026-04-19 05:09 -37.65956 149.63515 1536 ft 118 kts 242°
2026-04-19 05:09 -37.66295 149.62558 1537 ft 120 kts 243°
2026-04-19 05:09 -37.66616 149.61589 1540 ft 120 kts 244°
2026-04-19 05:09 -37.66942 149.60619 1540 ft 121 kts 243°
2026-04-19 05:10 -37.67260 149.59645 1530 ft 121 kts 245°
2026-04-19 05:10 -37.67587 149.58640 1535 ft 126 kts 243°
2026-04-19 05:10 -37.67921 149.57630 1536 ft 127 kts 244°
2026-04-19 05:10 -37.68263 149.56612 1538 ft 124 kts 242°
2026-04-19 05:11 -37.68573 149.55614 1535 ft 122 kts 244°
2026-04-19 05:11 -37.68883 149.54608 1536 ft 124 kts 245°
2026-04-19 05:11 -37.69200 149.53599 1535 ft 124 kts 245°
2026-04-19 05:11 -37.69530 149.52599 1533 ft 124 kts 243°
2026-04-19 05:12 -37.69849 149.51599 1538 ft 121 kts 243°
2026-04-19 05:12 -37.70166 149.50607 1537 ft 124 kts 244°
2026-04-19 05:12 -37.70496 149.49608 1538 ft 124 kts 244°
2026-04-19 05:12 -37.70827 149.48605 1539 ft 126 kts 247°
2026-04-19 05:13 -37.71056 149.47534 1544 ft 126 kts 253°
2026-04-19 05:13 -37.71230 149.46466 1539 ft 123 kts 256°
2026-04-19 05:13 -37.71402 149.45399 1541 ft 125 kts 254°
2026-04-19 05:13 -37.71584 149.44304 1541 ft 130 kts 255°
2026-04-19 05:14 -37.71779 149.43187 1545 ft 127 kts 253°
2026-04-19 05:14 -37.71956 149.42096 1541 ft 127 kts 255°
2026-04-19 05:14 -37.72123 149.41005 1543 ft 126 kts 253°
2026-04-19 05:14 -37.72274 149.39918 1541 ft 127 kts 254°
2026-04-19 05:15 -37.72422 149.38811 1540 ft 127 kts 255°
2026-04-19 05:15 -37.72558 149.37719 1538 ft 126 kts 255°
2026-04-19 05:15 -37.72699 149.36636 1538 ft 124 kts 255°
2026-04-19 05:15 -37.72854 149.35559 1538 ft 125 kts 255°
2026-04-19 05:16 -37.73021 149.34477 1542 ft 125 kts 255°
2026-04-19 05:16 -37.73193 149.33404 1540 ft 126 kts 255°
2026-04-19 05:16 -37.73359 149.32319 1538 ft 125 kts 254°
2026-04-19 05:16 -37.73518 149.31231 1541 ft 126 kts 255°
2026-04-19 05:17 -37.73687 149.30152 1542 ft 125 kts 255°
2026-04-19 05:17 -37.73876 149.29084 1542 ft 124 kts 254°
2026-04-19 05:17 -37.74070 149.28019 1544 ft 125 kts 254°
2026-04-19 05:17 -37.74260 149.26943 1541 ft 126 kts 254°
2026-04-19 05:18 -37.74442 149.25859 1540 ft 127 kts 253°
2026-04-19 05:18 -37.74620 149.24775 1540 ft 126 kts 255°
2026-04-19 05:18 -37.74793 149.23691 1542 ft 125 kts 254°
2026-04-19 05:18 -37.74956 149.22615 1537 ft 124 kts 255°
2026-04-19 05:19 -37.75130 149.21548 1541 ft 125 kts 254°
2026-04-19 05:19 -37.75311 149.20471 1547 ft 126 kts 254°
2026-04-19 05:19 -37.75478 149.19417 1548 ft 123 kts 254°
2026-04-19 05:19 -37.75640 149.18353 1545 ft 124 kts 255°
2026-04-19 05:20 -37.75815 149.17272 1545 ft 124 kts 255°
2026-04-19 05:20 -37.75999 149.16217 1546 ft 124 kts 254°
2026-04-19 05:20 -37.76179 149.15158 1541 ft 124 kts 254°
2026-04-19 05:20 -37.76352 149.14087 1542 ft 123 kts 254°
2026-04-19 05:21 -37.76531 149.13020 1543 ft 126 kts 254°
2026-04-19 05:21 -37.76720 149.11935 1545 ft 126 kts 254°
2026-04-19 05:21 -37.76900 149.10854 1540 ft 127 kts 254°
2026-04-19 05:21 -37.77074 149.09772 1542 ft 125 kts 255°
2026-04-19 05:22 -37.77256 149.08686 1546 ft 126 kts 253°
2026-04-19 05:22 -37.77433 149.07598 1540 ft 127 kts 255°
2026-04-19 05:22 -37.77618 149.06514 1543 ft 126 kts 255°
2026-04-19 05:22 -37.77809 149.05422 1542 ft 126 kts 255°
2026-04-19 05:23 -37.78003 149.04325 1552 ft 129 kts 254°
2026-04-19 05:23 -37.78190 149.03227 1546 ft 129 kts 255°
2026-04-19 05:23 -37.78374 149.02114 1551 ft 129 kts 253°
2026-04-19 05:23 -37.78554 149.01000 1546 ft 129 kts 254°
2026-04-19 05:24 -37.78748 148.99893 1547 ft 129 kts 254°
2026-04-19 05:24 -37.78944 148.98791 1545 ft 129 kts 255°
2026-04-19 05:24 -37.79134 148.97684 1545 ft 130 kts 254°
2026-04-19 05:24 -37.79313 148.96562 1547 ft 130 kts 254°
2026-04-19 05:25 -37.79490 148.95442 1548 ft 130 kts 254°
2026-04-19 05:25 -37.79669 148.94316 1548 ft 131 kts 255°
2026-04-19 05:25 -37.79854 148.93191 1546 ft 130 kts 255°
2026-04-19 05:25 -37.80039 148.92069 1546 ft 130 kts 255°
2026-04-19 05:26 -37.80237 148.90947 1546 ft 132 kts 253°
2026-04-19 05:26 -37.80427 148.89821 1544 ft 130 kts 254°
2026-04-19 05:26 -37.80613 148.88699 1547 ft 131 kts 255°
2026-04-19 05:26 -37.80816 148.87577 1546 ft 131 kts 254°
2026-04-19 05:27 -37.81009 148.86459 1549 ft 130 kts 255°
2026-04-19 05:27 -37.81201 148.85348 1554 ft 129 kts 255°
2026-04-19 05:27 -37.81401 148.84241 1552 ft 129 kts 255°
2026-04-19 05:27 -37.81605 148.83146 1554 ft 126 kts 253°
2026-04-19 05:28 -37.81794 148.82065 1549 ft 126 kts 253°
2026-04-19 05:28 -37.81980 148.80987 1546 ft 127 kts 255°
2026-04-19 05:28 -37.82178 148.79900 1546 ft 127 kts 254°
2026-04-19 05:28 -37.82367 148.78818 1549 ft 125 kts 255°
2026-04-19 05:29 -37.82552 148.77732 1547 ft 127 kts 254°
2026-04-19 05:29 -37.82728 148.76648 1550 ft 126 kts 254°
2026-04-19 05:29 -37.82899 148.75561 1551 ft 125 kts 254°
2026-04-19 05:29 -37.83085 148.74453 1553 ft 131 kts 254°
2026-04-19 05:30 -37.83281 148.73327 1548 ft 131 kts 255°
2026-04-19 05:30 -37.83488 148.72193 1549 ft 133 kts 255°
2026-04-19 05:30 -37.83701 148.71057 1550 ft 133 kts 254°
2026-04-19 05:30 -37.83905 148.69914 1550 ft 133 kts 255°
2026-04-19 05:31 -37.84106 148.68767 1550 ft 134 kts 255°
2026-04-19 05:31 -37.84316 148.67624 1549 ft 133 kts 255°
2026-04-19 05:31 -37.84533 148.66491 1550 ft 133 kts 254°
2026-04-19 05:31 -37.84749 148.65357 1550 ft 133 kts 254°
2026-04-19 05:32 -37.84959 148.64220 1553 ft 133 kts 255°
2026-04-19 05:32 -37.85169 148.63078 1552 ft 134 kts 254°
2026-04-19 05:32 -37.85373 148.61930 1552 ft 134 kts 255°
2026-04-19 05:32 -37.85583 148.60790 1549 ft 133 kts 254°
2026-04-19 05:33 -37.85794 148.59653 1553 ft 133 kts 254°
2026-04-19 05:33 -37.85998 148.58507 1550 ft 133 kts 254°
2026-04-19 05:33 -37.86199 148.57373 1548 ft 134 kts 254°
2026-04-19 05:33 -37.86407 148.56228 1552 ft 134 kts 254°
2026-04-19 05:34 -37.86612 148.55063 1554 ft 134 kts 255°
2026-04-19 05:34 -37.86817 148.53940 1551 ft 132 kts 254°
2026-04-19 05:34 -37.87029 148.52806 1552 ft 133 kts 253°
2026-04-19 05:34 -37.87233 148.51661 1552 ft 134 kts 254°
2026-04-19 05:35 -37.87437 148.50514 1553 ft 134 kts 255°
2026-04-19 05:35 -37.87648 148.49369 1553 ft 134 kts 255°
2026-04-19 05:35 -37.87745 148.48200 1555 ft 134 kts 270°
2026-04-19 05:35 -37.87679 148.47028 1556 ft 134 kts 274°
2026-04-19 05:36 -37.87598 148.45848 1553 ft 135 kts 274°
2026-04-19 05:36 -37.87517 148.44657 1554 ft 135 kts 274°
2026-04-19 05:36 -37.87431 148.43469 1555 ft 136 kts 274°
2026-04-19 05:36 -37.87341 148.42285 1552 ft 136 kts 275°
2026-04-19 05:37 -37.87252 148.41093 1554 ft 136 kts 274°
2026-04-19 05:37 -37.87163 148.39905 1551 ft 136 kts 274°
2026-04-19 05:37 -37.87016 148.38722 1552 ft 138 kts 287°
2026-04-19 05:37 -37.86668 148.37584 1554 ft 139 kts 292°
2026-04-19 05:38 -37.86283 148.36448 1553 ft 141 kts 293°
2026-04-19 05:38 -37.85898 148.35323 1553 ft 139 kts 293°
2026-04-19 05:38 -37.85513 148.34197 1553 ft 140 kts 293°
2026-04-19 05:38 -37.85127 148.33071 1555 ft 140 kts 293°
2026-04-19 05:39 -37.84742 148.31944 1548 ft 140 kts 293°
2026-04-19 05:39 -37.84360 148.30820 1550 ft 138 kts 293°
2026-04-19 05:39 -37.83976 148.29691 1552 ft 140 kts 293°
2026-04-19 05:39 -37.83593 148.28577 1545 ft 138 kts 293°
2026-04-19 05:40 -37.83256 148.27473 1553 ft 135 kts 282°
2026-04-19 05:40 -37.83260 148.26287 1556 ft 135 kts 262°
2026-04-19 05:40 -37.83398 148.25108 1553 ft 136 kts 259°
2026-04-19 05:40 -37.83550 148.23933 1548 ft 135 kts 259°
2026-04-19 05:41 -37.83701 148.22759 1551 ft 135 kts 259°
2026-04-19 05:41 -37.83853 148.21592 1548 ft 134 kts 259°
2026-04-19 05:41 -37.83998 148.20414 1551 ft 136 kts 259°
2026-04-19 05:41 -37.84148 148.19232 1553 ft 136 kts 259°
2026-04-19 05:42 -37.84308 148.18043 1551 ft 137 kts 259°
2026-04-19 05:42 -37.84470 148.16854 1548 ft 138 kts 259°
2026-04-19 05:42 -37.84632 148.15653 1549 ft 138 kts 259°
2026-04-19 05:42 -37.84793 148.14450 1553 ft 139 kts 259°
2026-04-19 05:43 -37.84956 148.13252 1550 ft 137 kts 259°
2026-04-19 05:43 -37.85119 148.12052 1550 ft 139 kts 258°
2026-04-19 05:43 -37.85280 148.10845 1549 ft 137 kts 258°
2026-04-19 05:43 -37.85566 148.09707 1545 ft 137 kts 248°
2026-04-19 05:44 -37.85904 148.08562 1550 ft 139 kts 247°
2026-04-19 05:44 -37.86247 148.07427 1548 ft 137 kts 247°
2026-04-19 05:44 -37.86586 148.06308 1549 ft 136 kts 248°
2026-04-19 05:44 -37.86925 148.05191 1550 ft 136 kts 248°
2026-04-19 05:45 -37.87261 148.04060 1552 ft 138 kts 248°
2026-04-19 05:45 -37.87591 148.02925 1552 ft 136 kts 248°
2026-04-19 05:45 -37.87921 148.01803 1549 ft 137 kts 248°
2026-04-19 05:45 -37.88247 148.00663 1547 ft 139 kts 248°
2026-04-19 05:46 -37.88579 147.99512 1553 ft 139 kts 248°
2026-04-19 05:46 -37.88908 147.98370 1555 ft 137 kts 248°
2026-04-19 05:46 -37.89236 147.97247 1553 ft 136 kts 248°
2026-04-19 05:46 -37.89562 147.96108 1557 ft 137 kts 248°
2026-04-19 05:47 -37.89894 147.94978 1554 ft 137 kts 248°
2026-04-19 05:47 -37.90229 147.93841 1555 ft 138 kts 248°
2026-04-19 05:47 -37.90567 147.92717 1555 ft 136 kts 248°
2026-04-19 05:47 -37.90903 147.91582 1556 ft 138 kts 248°
2026-04-19 05:48 -37.91238 147.90454 1548 ft 136 kts 248°
2026-04-19 05:48 -37.91575 147.89324 1547 ft 138 kts 248°
2026-04-19 05:48 -37.91913 147.88174 1551 ft 140 kts 248°
2026-04-19 05:48 -37.92251 147.87022 1553 ft 139 kts 248°
2026-04-19 05:49 -37.92594 147.85895 1550 ft 136 kts 248°
2026-04-19 05:49 -37.92824 147.85151 1548 ft 138 kts 248°
2026-04-19 05:49 -37.93169 147.84015 1550 ft 138 kts 248°
2026-04-19 05:49 -37.93512 147.82897 1551 ft 135 kts 248°
2026-04-19 05:50 -37.93964 147.81413 1550 ft 137 kts 248°
2026-04-19 05:50 -37.94197 147.80653 1552 ft 137 kts 248°
2026-04-19 05:50 -37.94544 147.79519 1555 ft 138 kts 248°
2026-04-19 05:50 -37.94888 147.78394 1552 ft 137 kts 248°
2026-04-19 05:51 -37.95231 147.77266 1547 ft 137 kts 248°
2026-04-19 05:51 -37.95572 147.76129 1547 ft 139 kts 248°
2026-04-19 05:51 -37.95918 147.74985 1550 ft 138 kts 248°
2026-04-19 05:51 -37.96267 147.73860 1550 ft 137 kts 248°
2026-04-19 05:52 -37.96616 147.72726 1550 ft 137 kts 248°
2026-04-19 05:52 -37.96959 147.71602 1547 ft 136 kts 248°
2026-04-19 05:52 -37.97300 147.70491 1543 ft 135 kts 248°
2026-04-19 05:52 -37.97643 147.69373 1548 ft 137 kts 248°
2026-04-19 05:53 -37.97992 147.68237 1550 ft 139 kts 248°
2026-04-19 05:53 -37.98336 147.67118 1554 ft 137 kts 248°
2026-04-19 05:53 -37.98689 147.65971 1552 ft 138 kts 248°
2026-04-19 05:53 -37.99032 147.64852 1552 ft 138 kts 248°
2026-04-19 05:54 -37.99386 147.63718 1550 ft 139 kts 248°
2026-04-19 05:54 -37.99743 147.62584 1549 ft 138 kts 248°
2026-04-19 05:54 -38.00101 147.61443 1535 ft 141 kts 248°
2026-04-19 05:54 -38.00457 147.60309 1527 ft 137 kts 248°
2026-04-19 05:55 -38.00808 147.59185 1521 ft 137 kts 250°
2026-04-19 05:55 -38.01062 147.58025 1519 ft 137 kts 256°
2026-04-19 05:55 -38.01279 147.56845 1518 ft 138 kts 257°
2026-04-19 05:55 -38.01494 147.55649 1521 ft 139 kts 257°
2026-04-19 05:56 -38.01711 147.54459 1518 ft 138 kts 257°
2026-04-19 05:56 -38.01935 147.53269 1517 ft 139 kts 257°
2026-04-19 05:56 -38.02153 147.52062 1510 ft 141 kts 259°
2026-04-19 05:56 -38.02336 147.50842 1518 ft 140 kts 257°
2026-04-19 05:57 -38.02571 147.49644 1446 ft 139 kts 255°
2026-04-19 05:57 -38.02817 147.48485 1202 ft 135 kts 254°
2026-04-19 05:57 -38.03061 147.47339 1097 ft 135 kts 254°
2026-04-19 05:57 -38.03300 147.46173 1053 ft 138 kts 255°
2026-04-19 05:58 -38.03543 147.44988 1039 ft 139 kts 255°
2026-04-19 05:58 -38.03772 147.43909 1039 ft 115 kts 254°
2026-04-19 05:58 -38.03989 147.42919 1021 ft 119 kts 254°
2026-04-19 05:58 -38.04200 147.41903 1022 ft 119 kts 254°
2026-04-19 05:59 -38.04407 147.40892 1018 ft 119 kts 255°
2026-04-19 05:59 -38.04575 147.39869 1017 ft 120 kts 264°
2026-04-19 05:59 -38.04616 147.38811 1019 ft 122 kts 268°
2026-04-19 05:59 -38.04638 147.37718 1015 ft 122 kts 268°
2026-04-19 06:00 -38.04659 147.36655 1014 ft 120 kts 268°
2026-04-19 06:00 -38.04678 147.35614 1016 ft 120 kts 269°
2026-04-19 06:00 -38.04696 147.34559 1018 ft 118 kts 268°
2026-04-19 06:00 -38.04712 147.33528 1017 ft 116 kts 268°
2026-04-19 06:01 -38.04725 147.32498 1018 ft 117 kts 269°
2026-04-19 06:01 -38.04742 147.31458 1016 ft 118 kts 269°
2026-04-19 06:01 -38.04759 147.30415 1015 ft 119 kts 268°
2026-04-19 06:01 -38.04876 147.29382 1015 ft 118 kts 255°
2026-04-19 06:02 -38.05096 147.28385 1013 ft 118 kts 253°
2026-04-19 06:02 -38.05330 147.27390 1015 ft 118 kts 253°
2026-04-19 06:02 -38.05569 147.26380 1016 ft 119 kts 252°
2026-04-19 06:02 -38.05806 147.25381 1013 ft 117 kts 253°
2026-04-19 06:03 -38.06044 147.24384 1013 ft 118 kts 252°
2026-04-19 06:03 -38.06278 147.23396 800 ft 116 kts 252°
2026-04-19 06:03 -38.06515 147.22418 638 ft 117 kts 252°
2026-04-19 06:03 -38.06749 147.21439 563 ft 116 kts 252°
2026-04-19 06:04 -38.06981 147.20463 537 ft 116 kts 252°
2026-04-19 06:04 -38.07219 147.19468 528 ft 119 kts 252°
2026-04-19 06:04 -38.07456 147.18472 523 ft 117 kts 252°
2026-04-19 06:04 -38.07692 147.17484 523 ft 116 kts 252°
2026-04-19 06:05 -38.07903 147.16612 528 ft 90 kts 260°
2026-04-19 06:05 -38.07903 147.15858 513 ft 86 kts 275°
2026-04-19 06:05 -38.07839 147.15103 511 ft 86 kts 277°
2026-04-19 06:05 -38.07772 147.14345 511 ft 87 kts 276°
2026-04-19 06:06 -38.07692 147.13590 512 ft 85 kts 277°
2026-04-19 06:06 -38.07618 147.12829 509 ft 89 kts 277°
2026-04-19 06:06 -38.07593 147.12061 510 ft 86 kts 256°
2026-04-19 06:06 -38.07962 147.11487 509 ft 86 kts 202°
2026-04-19 06:07 -38.08517 147.11278 518 ft 83 kts 189°
2026-04-19 06:07 -38.09074 147.11327 465 ft 85 kts 142°
2026-04-19 06:07 -38.09441 147.11899 212 ft 81 kts 114°
2026-04-19 06:07 -38.09624 147.12479 119 ft 58 kts 107°
2026-04-19 06:08 -38.09696 147.12839 48 ft 29 kts 101°
2026-04-19 06:08 -38.09721 147.13029 31 ft 15 kts 102°
2026-04-19 06:08 -38.09755 147.13130 30 ft 14 kts 155°
2026-04-19 06:08 -38.09813 147.13103 29 ft 4 kts 277°
2026-04-19 06:09 -38.09841 147.13085 24 ft 2 kts 191°
2026-04-19 06:09 -38.09846 147.13084 25 ft 0 kts 193°